Torna al catalogo

COSMOS 2127

AttivoMilitareLEO
NORAD 21102·PAYLOAD·🇷🇺 Russia

Lanciato Feb 12, 1991 da Plesetsk Cosmodrome

Loading…

Prossimi Passaggi (prossime 24 ore)

TLE

AggiornatoSource: Space-Track

Epoca: Sep 14, 2026, 09:56 UTC

1 21102U 91009C   26257.41425049 -.00000023  00000-0 -45899-4 0  9992
2 21102  74.0263 259.3587 0007077 214.8638 214.8674 12.48180355621549

Traccia COSMOS 2127 in tempo reale con AllMySat

Download on the App Store